| time (UTC) | temp F | wind direction | speed knots | gust knots | rain 1hr in | rain 24hr in | rain mn in | humidity % | barometer mb |
| 20260504003255 | 63 | 151 | 0.0 | 1.7 | 0.00 | 0.01 | 0.01 | 61 | 1020.4 |
| 20260504002751 | 63 | 0 | 0.0 | 0.0 | 0.00 | 0.01 | 0.01 | 55 | 1020.3 |
| 20260504002249 | 65 | 0 | 0.0 | 1.7 | 0.00 | 0.01 | 0.01 | 52 | 1020.4 |
| 20260504001746 | 65 | 0 | 1.7 | 1.7 | 0.00 | 0.01 | 0.01 | 52 | 1020.5 |
| 20260504001243 | 66 | 349 | 1.7 | 1.7 | 0.00 | 0.01 | 0.01 | 50 | 1020.5 |
| 20260504000740 | 66 | 0 | 0.0 | 0.0 | 0.00 | 0.01 | 0.01 | 48 | 1020.2 |
| 20260504000237 | 67 | 345 | 0.0 | 0.0 | 0.00 | 0.01 | 0.01 | 46 | 1020.5 |
| 20260503235735 | 68 | 345 | 0.0 | 0.0 | 0.00 | 0.01 | 0.01 | 44 | 1020.2 |
| 20260503235232 | 68 | 286 | 0.0 | 0.9 | 0.00 | 0.01 | 0.01 | 42 | 1020.2 |
| 20260503234730 | 69 | 270 | 0.9 | 1.7 | 0.00 | 0.01 | 0.01 | 42 | 1020.3 |
| 20260503234228 | 69 | 286 | 0.0 | 2.6 | 0.00 | 0.01 | 0.01 | 40 | 1020.3 |
| 20260503233725 | 70 | 263 | 0.0 | 0.9 | 0.00 | 0.01 | 0.01 | 39 | 1020.2 |
| 20260503233219 | 71 | 250 | 1.7 | 2.6 | 0.00 | 0.01 | 0.01 | 38 | 1020.5 |
| 20260503232717 | 73 | 266 | 2.6 | 2.6 | 0.00 | 0.01 | 0.01 | 37 | 1020.0 |
| 20260503232214 | 74 | 173 | 0.0 | 2.6 | 0.00 | 0.01 | 0.01 | 37 | 1020.3 |
| 20260503231713 | 75 | 236 | 0.0 | 1.7 | 0.00 | 0.01 | 0.01 | 39 | 1020.3 |
| 20260503231209 | 73 | 247 | 2.6 | 3.5 | 0.00 | 0.01 | 0.01 | 36 | 1020.4 |
| 20260503230705 | 74 | 306 | 0.0 | 2.6 | 0.00 | 0.01 | 0.01 | 37 | 1020.3 |
| 20260503230203 | 74 | 313 | 2.6 | 3.5 | 0.00 | 0.01 | 0.01 | 39 | 1020.2 |
| 20260503225700 | 73 | 303 | 1.7 | 4.3 | 0.00 | 0.01 | 0.01 | 38 | 1020.4 |
| 20260503225159 | 73 | 261 | 1.7 | 4.3 | 0.00 | 0.01 | 0.01 | 39 | 1020.3 |
| 20260503224657 | 73 | 294 | 0.0 | 6.1 | 0.00 | 0.01 | 0.01 | 39 | 1020.6 |
| 20260503224155 | 74 | 292 | 1.7 | 3.5 | 0.00 | 0.01 | 0.01 | 38 | 1020.4 |
| 20260503223653 | 73 | 270 | 3.5 | 6.1 | 0.00 | 0.01 | 0.01 | 37 | 1020.5 |
| 20260503223149 | 75 | 203 | 0.9 | 1.7 | 0.00 | 0.01 | 0.01 | 38 | 1020.4 |
| 20260503222646 | 73 | 315 | 3.5 | 6.1 | 0.00 | 0.01 | 0.01 | 37 | 1020.6 |
| 20260503222144 | 74 | 257 | 0.9 | 3.5 | 0.00 | 0.01 | 0.01 | 38 | 1020.5 |
| 20260503221642 | 75 | 315 | 1.7 | 3.5 | 0.00 | 0.01 | 0.01 | 39 | 1020.5 |
| 20260503221139 | 76 | 293 | 3.5 | 3.5 | 0.00 | 0.01 | 0.01 | 38 | 1020.4 |
| 20260503220636 | 75 | 270 | 4.3 | 4.3 | 0.00 | 0.01 | 0.01 | 38 | 1020.5 |
| 20260503220132 | 75 | 237 | 1.7 | 4.3 | 0.00 | 0.01 | 0.01 | 36 | 1020.4 |
| 20260503215630 | 74 | 45 | 0.0 | 2.6 | 0.00 | 0.01 | 0.01 | 38 | 1020.6 |
| 20260503215126 | 73 | 255 | 2.6 | 4.3 | 0.00 | 0.01 | 0.01 | 38 | 1020.6 |
| 20260503214625 | 74 | 338 | 5.2 | 5.2 | 0.00 | 0.01 | 0.01 | 38 | 1020.9 |
| 20260503214120 | 75 | 209 | 3.5 | 3.5 | 0.00 | 0.01 | 0.01 | 39 | 1020.6 |
| 20260503213614 | 75 | 140 | 3.5 | 4.3 | 0.00 | 0.01 | 0.01 | 40 | 1020.4 |
| 20260503213110 | 74 | 345 | 0.0 | 2.6 | 0.00 | 0.01 | 0.01 | 38 | 1020.5 |
| 20260503212608 | 75 | 270 | 0.0 | 2.6 | 0.00 | 0.01 | 0.01 | 38 | 1020.8 |
| 20260503212105 | 75 | 270 | 1.7 | 3.5 | 0.00 | 0.01 | 0.01 | 39 | 1020.6 |
| 20260503211603 | 76 | 294 | 0.0 | 2.6 | 0.00 | 0.01 | 0.01 | 42 | 1020.8 |
| 20260503211057 | 73 | 95 | 3.5 | 6.1 | 0.00 | 0.01 | 0.01 | 40 | 1020.9 |
| 20260503210554 | 74 | 324 | 1.7 | 4.3 | 0.00 | 0.01 | 0.01 | 39 | 1020.9 |
| 20260503210050 | 73 | 210 | 4.3 | 7.0 | 0.00 | 0.01 | 0.01 | 40 | 1020.6 |
| 20260503205547 | 73 | 272 | 4.3 | 6.1 | 0.00 | 0.01 | 0.01 | 41 | 1021.0 |
| 20260503205043 | 73 | 346 | 1.7 | 4.3 | 0.00 | 0.01 | 0.01 | 40 | 1020.9 |
| 20260503204541 | 74 | 244 | 4.3 | 5.2 | 0.00 | 0.01 | 0.01 | 39 | 1020.8 |
| 20260503204038 | 75 | 225 | 2.6 | 6.1 | 0.00 | 0.01 | 0.01 | 40 | 1021.0 |
| 20260503203535 | 74 | 241 | 3.5 | 6.1 | 0.00 | 0.01 | 0.01 | 38 | 1020.8 |
| 20260503203032 | 74 | 252 | 4.3 | 4.3 | 0.00 | 0.01 | 0.01 | 40 | 1021.2 |
| 20260503202530 | 72 | 223 | 6.1 | 6.1 | 0.00 | 0.01 | 0.01 | 42 | 1021.3 |
| 20260503202027 | 73 | 306 | 2.6 | 5.2 | 0.00 | 0.01 | 0.01 | 40 | 1021.1 |
| 20260503201526 | 73 | 318 | 2.6 | 5.2 | 0.00 | 0.01 | 0.01 | 40 | 1021.5 |
| 20260503201022 | 73 | 193 | 2.6 | 4.3 | 0.00 | 0.01 | 0.01 | 40 | 1021.3 |
| 20260503200518 | 72 | 123 | 1.7 | 4.3 | 0.00 | 0.01 | 0.01 | 39 | 1021.5 |
| 20260503200015 | 73 | 270 | 1.7 | 6.1 | 0.00 | 0.01 | 0.01 | 43 | 1021.6 |
| 20260503195513 | 73 | 138 | 2.6 | 2.6 | 0.00 | 0.01 | 0.01 | 39 | 1021.6 |
| 20260503195009 | 72 | 294 | 4.3 | 6.1 | 0.00 | 0.01 | 0.01 | 37 | 1021.5 |
| 20260503194506 | 71 | 57 | 0.0 | 2.6 | 0.00 | 0.01 | 0.01 | 39 | 1021.9 |
| 20260503194006 | 71 | 289 | 2.6 | 7.8 | 0.00 | 0.01 | 0.01 | 40 | 1021.8 |
| 20260503193503 | 71 | 64 | 2.6 | 5.2 | 0.00 | 0.01 | 0.01 | 40 | 1022.0 |
| 20260503192958 | 73 | 250 | 3.5 | 6.1 | 0.00 | 0.01 | 0.01 | 39 | 1022.0 |
| 20260503192455 | 73 | 60 | 0.9 | 3.5 | 0.00 | 0.01 | 0.01 | 41 | 1022.2 |
| 20260503191950 | 71 | 285 | 1.7 | 5.2 | 0.00 | 0.01 | 0.01 | 42 | 1022.4 |
| 20260503191448 | 72 | 314 | 0.0 | 5.2 | 0.00 | 0.01 | 0.01 | 41 | 1022.5 |
| 20260503190944 | 72 | 63 | 0.0 | 5.2 | 0.00 | 0.01 | 0.01 | 42 | 1022.5 |
| 20260503190442 | 71 | 229 | 2.6 | 6.1 | 0.00 | 0.01 | 0.01 | 42 | 1022.7 |
| 20260503185939 | 71 | 238 | 0.0 | 4.3 | 0.00 | 0.01 | 0.01 | 47 | 1022.8 |
| 20260503185435 | 72 | 255 | 2.6 | 4.3 | 0.00 | 0.01 | 0.01 | 44 | 1022.8 |
| 20260503184934 | 70 | 225 | 1.7 | 7.8 | 0.00 | 0.01 | 0.01 | 44 | 1023.0 |
| 20260503184431 | 71 | 73 | 0.0 | 2.6 | 0.00 | 0.01 | 0.01 | 44 | 1023.1 |
| 20260503183927 | 70 | 249 | 2.6 | 9.6 | 0.00 | 0.01 | 0.01 | 43 | 1023.3 |
| 20260503183424 | 70 | 258 | 1.7 | 5.2 | 0.00 | 0.01 | 0.01 | 44 | 1023.1 |
| 20260503182921 | 69 | 300 | 2.6 | 7.0 | 0.00 | 0.01 | 0.01 | 45 | 1023.4 |
| 20260503182420 | 69 | 226 | 5.2 | 5.2 | 0.00 | 0.01 | 0.01 | 45 | 1023.5 |
| 20260503181917 | 69 | 270 | 5.2 | 7.8 | 0.00 | 0.01 | 0.01 | 45 | 1023.4 |
| 20260503181414 | 69 | 70 | 2.6 | 7.0 | 0.00 | 0.01 | 0.01 | 43 | 1023.5 |
| 20260503180910 | 69 | 226 | 4.3 | 7.8 | 0.00 | 0.01 | 0.01 | 44 | 1023.7 |
| 20260503180408 | 70 | 305 | 5.2 | 5.2 | 0.00 | 0.01 | 0.01 | 43 | 1023.7 |
| 20260503175904 | 70 | 320 | 2.6 | 7.8 | 0.00 | 0.01 | 0.01 | 42 | 1023.8 |
| 20260503175403 | 70 | 263 | 3.5 | 5.2 | 0.00 | 0.01 | 0.01 | 46 | 1023.8 |
| 20260503174858 | 69 | 249 | 4.3 | 5.2 | 0.00 | 0.01 | 0.01 | 44 | 1023.8 |
| 20260503174356 | 69 | 199 | 2.6 | 10.4 | 0.00 | 0.01 | 0.01 | 43 | 1023.9 |
| 20260503173851 | 70 | 219 | 3.5 | 3.5 | 0.00 | 0.01 | 0.01 | 43 | 1023.7 |
| 20260503173347 | 68 | 293 | 3.5 | 5.2 | 0.00 | 0.01 | 0.01 | 41 | 1023.9 |
| 20260503172844 | 69 | 257 | 4.3 | 8.7 | 0.00 | 0.01 | 0.01 | 43 | 1023.8 |
| 20260503172342 | 69 | 236 | 7.8 | 9.6 | 0.00 | 0.01 | 0.01 | 42 | 1024.1 |
| 20260503171838 | 68 | 220 | 5.2 | 8.7 | 0.00 | 0.01 | 0.01 | 43 | 1023.8 |
| 20260503171335 | 68 | 205 | 8.7 | 8.7 | 0.00 | 0.01 | 0.01 | 41 | 1023.9 |
| 20260503170832 | 68 | 234 | 3.5 | 9.6 | 0.00 | 0.01 | 0.01 | 44 | 1024.0 |
| 20260503170329 | 68 | 226 | 5.2 | 6.1 | 0.00 | 0.01 | 0.01 | 44 | 1024.1 |
| 20260503150721 | 64 | 96 | 1.7 | 2.6 | 0.00 | 0.01 | 0.01 | 58 | 1024.8 |
| 20260503150217 | 63 | 37 | 0.0 | 4.3 | 0.00 | 0.01 | 0.01 | 60 | 1025.0 |
| 20260503140141 | 59 | 85 | 1.7 | 4.3 | 0.00 | 0.01 | 0.01 | 80 | 1024.4 |
| 20260503131111 | 55 | 61 | 1.7 | 2.6 | 0.00 | 0.01 | 0.01 | 99 | 1024.5 |
| 20260503130609 | 54 | 63 | 0.0 | 2.6 | 0.00 | 0.01 | 0.01 | 99 | 1024.3 |
| 20260503130106 | 53 | 71 | 2.6 | 2.6 | 0.00 | 0.01 | 0.01 | 99 | 1024.3 |
| 20260503110458 | 46 | 90 | 0.0 | 0.0 | 0.00 | 0.01 | 0.01 | 99 | 1023.3 |
| 20260503090350 | 48 | 278 | 0.0 | 0.0 | 0.00 | 0.00 | 0.00 | 99 | 1021.9 |
| 20260503081317 | 47 | 74 | 0.0 | 0.0 | 0.00 | 0.00 | 0.00 | 99 | 1021.5 |
| 20260503080814 | 48 | 66 | 0.0 | 0.9 | 0.00 | 0.00 | 0.00 | 99 | 1021.6 |
| 20260503080311 | 48 | 74 | 0.0 | 0.0 | 0.00 | 0.00 | 0.00 | 99 | 1021.6 |
| 20260503072747 | 50 | 157 | 0.0 | 0.9 | 0.00 | 0.00 | 0.00 | 99 | 1021.3 |
| 20260503072244 | 50 | 106 | 0.0 | 0.0 | 0.02 | 0.00 | 0.00 | 99 | 1021.2 |
| 20260503071740 | 49 | 106 | 0.0 | 0.0 | 0.00 | 0.00 | 0.00 | 99 | 1021.1 |
| 20260503071238 | 48 | 106 | 0.0 | 0.0 | 0.00 | 0.00 | 0.00 | 99 | 1021.2 |
| 20260503070734 | 49 | 106 | 0.0 | 0.0 | 0.00 | 0.00 | 0.00 | 99 | 1021.1 |
| 20260503070232 | 50 | 106 | 0.0 | 0.0 | 0.00 | 0.00 | 0.00 | 99 | 1021.1 |
| 20260503060151 | 52 | 291 | 0.0 | 1.7 | 0.00 | 0.00 | 0.00 | 99 | 1020.8 |
| 20260503054638 | 52 | 6 | 0.0 | 0.0 | 0.00 | 0.00 | 0.00 | 99 | 1020.6 |
| 20260503054135 | 52 | 286 | 0.0 | 0.0 | 0.00 | 0.00 | 0.00 | 99 | 1021.1 |
| 20260503053633 | 52 | 7 | 0.0 | 0.9 | 0.00 | 0.00 | 0.00 | 99 | 1020.5 |
| 20260503053132 | 52 | 270 | 0.0 | 0.0 | 0.00 | 0.00 | 0.00 | 99 | 1020.8 |
| 20260503052628 | 52 | 277 | 0.9 | 1.7 | 0.00 | 0.00 | 0.00 | 99 | 1020.8 |
| 20260503052124 | 52 | 82 | 0.0 | 0.0 | 0.00 | 0.00 | 0.00 | 99 | 1021.1 |
| 20260503051619 | 52 | 82 | 0.0 | 0.9 | 0.00 | 0.00 | 0.00 | 99 | 1020.6 |
| 20260503051118 | 52 | 90 | 0.0 | 0.0 | 0.00 | 0.00 | 0.00 | 99 | 1020.9 |
| 20260503050614 | 52 | 270 | 0.0 | 0.9 | 0.00 | 0.00 | 0.00 | 99 | 1020.8 |
| 20260503050111 | 52 | 66 | 0.0 | 1.7 | 0.00 | 0.00 | 0.00 | 99 | 1020.9 |
| 20260503045608 | 53 | 11 | 0.0 | 1.7 | 0.00 | 0.00 | 0.00 | 99 | 1021.0 |
| 20260503045105 | 53 | 15 | 0.0 | 0.9 | 0.00 | 0.00 | 0.00 | 99 | 1020.6 |
| 20260503044601 | 53 | 184 | 0.0 | 0.0 | 0.00 | 0.00 | 0.00 | 99 | 1020.6 |
| 20260503044059 | 53 | 184 | 0.0 | 0.0 | 0.00 | 0.00 | 0.00 | 99 | 1020.4 |
| 20260503043555 | 53 | 184 | 0.0 | 0.0 | 0.00 | 0.00 | 0.00 | 99 | 1020.6 |
| 20260503043052 | 53 | 184 | 0.0 | 0.0 | 0.00 | 0.00 | 0.00 | 99 | 1020.2 |
| 20260503042549 | 53 | 184 | 0.0 | 0.0 | 0.00 | 0.00 | 0.00 | 99 | 1020.1 |
| 20260503042045 | 54 | 184 | 0.0 | 1.7 | 0.00 | 0.00 | 0.00 | 99 | 1020.3 |
| 20260503041543 | 53 | 145 | 0.0 | 0.0 | 0.00 | 0.00 | 0.00 | 98 | 1020.4 |
| 20260503041040 | 53 | 145 | 0.0 | 0.0 | 0.00 | 0.00 | 0.00 | 98 | 1020.3 |
| 20260503040537 | 54 | 145 | 0.0 | 0.0 | 0.00 | 0.00 | 0.00 | 98 | 1020.3 |
| 20260503040034 | 54 | 151 | 0.0 | 0.0 | 0.00 | 0.00 | 0.00 | 98 | 1020.2 |
| 20260503035531 | 54 | 151 | 0.0 | 0.0 | 0.00 | 0.38 | 0.38 | 98 | 1020.5 |
| 20260503035029 | 55 | 151 | 0.0 | 0.0 | 0.00 | 0.38 | 0.38 | 98 | 1020.3 |
| 20260503034526 | 55 | 151 | 0.0 | 0.0 | 0.00 | 0.38 | 0.38 | 98 | 1020.1 |
| 20260503034023 | 55 | 165 | 0.0 | 0.0 | 0.00 | 0.38 | 0.38 | 98 | 1020.3 |
| 20260503033520 | 55 | 165 | 0.0 | 0.0 | 0.00 | 0.38 | 0.38 | 98 | 1020.2 |
| 20260503033018 | 55 | 165 | 0.0 | 0.9 | 0.00 | 0.38 | 0.38 | 98 | 1020.2 |
| 20260503032516 | 55 | 74 | 0.0 | 0.0 | 0.00 | 0.38 | 0.38 | 98 | 1020.4 |
| 20260503032014 | 55 | 74 | 0.0 | 0.0 | 0.00 | 0.38 | 0.38 | 98 | 1020.3 |
| 20260503031511 | 56 | 74 | 0.0 | 0.0 | 0.00 | 0.38 | 0.38 | 98 | 1020.4 |
| 20260503031008 | 56 | 66 | 0.0 | 0.9 | 0.00 | 0.38 | 0.38 | 98 | 1020.3 |
| 20260503030504 | 55 | 74 | 0.9 | 0.9 | 0.00 | 0.38 | 0.38 | 97 | 1020.3 |
| 20260503030002 | 55 | 114 | 0.0 | 0.0 | 0.00 | 0.38 | 0.38 | 97 | 1020.4 |
| 20260503025458 | 55 | 74 | 0.0 | 0.9 | 0.00 | 0.38 | 0.38 | 97 | 1020.2 |
| 20260503024956 | 56 | 12 | 0.0 | 1.7 | 0.00 | 0.38 | 0.38 | 97 | 1019.9 |
| 20260503024451 | 56 | 346 | 0.0 | 1.7 | 0.00 | 0.38 | 0.38 | 97 | 1020.0 |
| 20260503023949 | 56 | 0 | 1.7 | 1.7 | 0.00 | 0.38 | 0.38 | 97 | 1020.1 |
| 20260503023446 | 56 | 0 | 0.0 | 0.0 | 0.00 | 0.38 | 0.38 | 97 | 1019.7 |
| 20260503022943 | 56 | 0 | 0.0 | 0.0 | 0.00 | 0.38 | 0.38 | 97 | 1019.4 |
| 20260503022438 | 56 | 0 | 0.0 | 0.0 | 0.00 | 0.38 | 0.38 | 97 | 1019.5 |
| 20260503021934 | 56 | 0 | 0.0 | 0.0 | 0.00 | 0.38 | 0.38 | 96 | 1019.5 |
| 20260503021430 | 56 | 352 | 0.0 | 0.0 | 0.00 | 0.38 | 0.38 | 96 | 1019.6 |
| 20260503020928 | 56 | 0 | 0.0 | 0.0 | 0.00 | 0.38 | 0.38 | 96 | 1019.5 |
| 20260503020426 | 56 | 340 | 0.0 | 0.0 | 0.00 | 0.38 | 0.38 | 96 | 1019.2 |
| 20260503015922 | 55 | 340 | 0.0 | 1.7 | 0.00 | 0.38 | 0.38 | 95 | 1019.1 |
| 20260503015419 | 55 | 165 | 0.0 | 0.0 | 0.00 | 0.38 | 0.38 | 95 | 1018.9 |
| 20260503014915 | 56 | 165 | 0.0 | 0.9 | 0.00 | 0.38 | 0.38 | 95 | 1019.0 |
| 20260503014412 | 56 | 165 | 0.0 | 1.7 | 0.02 | 0.38 | 0.38 | 95 | 1018.6 |
| 20260503013910 | 56 | 236 | 0.0 | 3.5 | 0.02 | 0.38 | 0.38 | 95 | 1018.4 |
| 20260503013406 | 56 | 180 | 1.7 | 3.5 | 0.00 | 0.38 | 0.38 | 95 | 1018.3 |
| 20260503012903 | 57 | 103 | 1.7 | 3.5 | 0.00 | 0.38 | 0.38 | 94 | 1018.1 |
| 20260503012401 | 57 | 187 | 0.9 | 6.1 | 0.02 | 0.38 | 0.38 | 94 | 1018.2 |
| 20260503011857 | 57 | 308 | 1.7 | 2.6 | 0.02 | 0.38 | 0.38 | 93 | 1018.2 |
| 20260503011354 | 57 | 250 | 1.7 | 2.6 | 0.00 | 0.37 | 0.37 | 93 | 1018.3 |
| 20260503010851 | 56 | 190 | 0.0 | 1.7 | 0.00 | 0.37 | 0.37 | 93 | 1018.1 |
| 20260503010348 | 57 | 151 | 0.0 | 1.7 | 0.00 | 0.37 | 0.37 | 93 | 1017.7 |
| 20260503005845 | 56 | 194 | 0.9 | 2.6 | 0.00 | 0.37 | 0.37 | 93 | 1017.9 |
| 20260503005343 | 56 | 346 | 0.0 | 0.0 | 0.00 | 0.37 | 0.37 | 93 | 1017.7 |
| 20260503004838 | 57 | 83 | 0.0 | 0.9 | 0.00 | 0.37 | 0.37 | 93 | 1017.5 |
| 20260503004336 | 57 | 159 | 1.7 | 2.6 | 0.00 | 0.37 | 0.37 | 93 | 1017.5 |
| 20260503003833 | 57 | 251 | 0.0 | 1.7 | 0.00 | 0.37 | 0.37 | 92 | 1017.3 |